Weather History for Klamath Falls, OR

Change the Weather History Date:

Sunday, April 7, 2013

  Actual Average Record
Temperature  
Mean Temperature 40 °F 41 °F  
Max Temperature 48 °F 54 °F 79 °F (1996)
Min Temperature 32 °F 28 °F 16 °F (1953)
Degree Days  
Heating Degree Days 25 24  
Month to date heating degree days 136 172  
Since 1 July heating degree days 5578 5834  
Cooling Degree Days 0 0  
Month to date cooling degree days 0 0  
Year to date cooling degree days 0 0  
Moisture  
Dew Point 34 °F    
Average Humidity 81    
Maximum Humidity 96    
Minimum Humidity 56    
Precipitation  
Precipitation 0.16 in 0.04 in 0.90 in (1935)
Month to date precipitation 0.98 0.24  
Year to date precipitation 2.46 5.28  
Sea Level Pressure  
Sea Level Pressure 29.81 in    
Wind  
Wind Speed 15 mph (WNW)    
Max Wind Speed 29 mph    
Max Gust Speed 38 mph    
Visibility 7 miles    
Events Rain , Snow    
T = Trace of Precipitation, MM = Missing Value Source: NWS Daily Summary

Daily Weather History Graph

Daily Weather History Graph

Search for Another Location

Airport:

Trip Planner

Search our weather history database for the weather conditions in past years. The results will help you decide how hot, cold, wet, or windy it might be!

Date:

Astronomy

Apr. 07, 2013 Rise Set
Actual Time 6:38 AM PDT 7:39 PM PDT
Civil Twilight 6:10 AM PDT 8:08 PM PDT
Nautical Twilight 5:36 AM PDT 8:42 PM PDT
Astronomical Twilight 5:00 AM PDT 9:18 PM PDT
Moon 5:01 AM PDT (4/7) 5:15 PM PDT (4/7)
Length of Visible Light 13h 58m
Length of Day
13h 00m
Waning Crescent, 7% of the Moon is Illuminated
Apr 7
Waning Crescent
Apr 10
New
Apr 18
First Quarter
Apr 25
Full
May 2
Last Quarter

Hourly Weather History & Observations

Time (PDT) Temp. Windchill Dew Point Humidity Pressure Visibility Wind Dir Wind Speed Gust Speed Precip Events Conditions
12:53 AM 44.1 °F - 37.9 °F 79% 29.88 in 10.0 mi Calm Calm - N/A   Overcast
1:53 AM 44.1 °F - 37.9 °F 79% 29.86 in 10.0 mi Calm Calm - 0.00 in   Overcast
2:53 AM 44.1 °F 38.6 °F 37.0 °F 76% 29.84 in 10.0 mi SW 10.4 mph - N/A   Overcast
3:53 AM 44.1 °F 37.7 °F 36.0 °F 73% 29.83 in 10.0 mi WSW 12.7 mph 18.4 mph N/A   Overcast
4:53 AM 43.0 °F 36.0 °F 36.0 °F 76% 29.83 in 10.0 mi WSW 13.8 mph 26.5 mph N/A   Clear
5:53 AM 44.1 °F 35.7 °F 35.1 °F 71% 29.86 in 10.0 mi WSW 20.7 mph 35.7 mph N/A   Scattered Clouds
6:53 AM 43.0 °F 34.5 °F 35.1 °F 74% 29.86 in 10.0 mi WSW 19.6 mph 33.4 mph N/A   Partly Cloudy
7:53 AM 44.1 °F 35.4 °F 35.1 °F 71% 29.86 in 10.0 mi WSW 21.9 mph 31.1 mph N/A   Scattered Clouds
8:37 AM 44.6 °F 36.4 °F 35.6 °F 71% 29.88 in 10.0 mi WSW 20.7 mph - 0.00 in   Scattered Clouds
8:53 AM 45.0 °F 36.6 °F 35.1 °F 68% 29.86 in 10.0 mi WSW 21.9 mph 31.1 mph 0.00 in   Scattered Clouds
9:53 AM 46.0 °F 39.0 °F 35.1 °F 66% 29.86 in 10.0 mi WSW 17.3 mph 27.6 mph N/A   Mostly Cloudy
10:53 AM 46.4 °F 38.1 °F 33.8 °F 62% 29.86 in 10.0 mi WSW 24.2 mph 38.0 mph N/A   Mostly Cloudy
11:53 AM 46.0 °F 37.4 °F 33.1 °F 61% 29.85 in 10.0 mi WSW 25.3 mph 34.5 mph 0.00 in   Overcast
12:53 PM 48.0 °F - 34.0 °F 58% 29.83 in 10.0 mi WSW 20.7 mph 35.7 mph 0.00 in   Overcast
1:53 PM 44.1 °F 35.4 °F 35.1 °F 71% 29.83 in 10.0 mi West 21.9 mph 27.6 mph 0.00 in Rain Light Rain
2:50 PM 44.6 °F 39.2 °F 33.8 °F 66% 29.84 in 10.0 mi WSW 10.4 mph 19.6 mph 0.00 in Rain Light Rain
2:53 PM 46.0 °F 40.2 °F 35.1 °F 66% 29.81 in 10.0 mi WNW 12.7 mph 28.8 mph 0.00 in Rain Light Rain
3:26 PM 41.0 °F 31.6 °F 35.6 °F 81% 29.84 in 10.0 mi WNW 20.7 mph - 0.00 in Rain Light Rain
3:40 PM 35.6 °F 24.8 °F 33.8 °F 93% 29.85 in 2.5 mi WNW 19.6 mph - 0.04 in Snow Light Snow
3:49 PM 37.4 °F 27.8 °F 33.8 °F 87% 29.84 in 3.0 mi NW 17.3 mph - 0.05 in   Overcast
3:53 PM 37.9 °F 28.5 °F 35.1 °F 89% 29.84 in 7.0 mi WNW 17.3 mph - 0.05 in   Overcast
4:31 PM 39.2 °F 31.6 °F 35.6 °F 87% 29.82 in 10.0 mi West 12.7 mph - 0.01 in   Overcast
4:53 PM 39.9 °F 32.5 °F 34.0 °F 79% 29.79 in 10.0 mi WNW 12.7 mph - 0.01 in   Mostly Cloudy
5:53 PM 42.1 °F 36.6 °F 32.0 °F 67% 29.75 in 10.0 mi NW 9.2 mph - N/A   Scattered Clouds
6:36 PM 39.2 °F 30.5 °F 32.0 °F 75% 29.76 in 10.0 mi NNW 16.1 mph - N/A   Overcast
6:53 PM 36.0 °F 25.6 °F 32.0 °F 86% 29.75 in 2.0 mi NNW 18.4 mph - 0.00 in Snow Light Snow
7:53 PM 36.0 °F 26.7 °F 33.1 °F 89% 29.74 in 2.0 mi NNW 15.0 mph 20.7 mph 0.01 in   Overcast
8:00 PM 35.6 °F 27.1 °F 33.8 °F 93% 29.75 in 10.0 mi NNW 12.7 mph - N/A   Overcast
8:53 PM 35.1 °F 29.3 °F 33.1 °F 92% 29.75 in 9.0 mi North 6.9 mph - 0.00 in Snow Light Snow
9:12 PM 33.8 °F 27.0 °F 33.8 °F 100% 29.76 in 4.0 mi NNW 8.1 mph - 0.01 in Snow Light Snow
9:53 PM 34.0 °F 31.0 °F 32.0 °F 92% 29.76 in 4.0 mi NNW 3.5 mph - 0.01 in Snow Light Snow
10:15 PM 33.8 °F 29.6 °F 32.0 °F 93% 29.77 in 1.8 mi North 4.6 mph - 0.01 in Snow Light Snow
10:18 PM 33.8 °F 30.8 °F 32.0 °F 93% 29.77 in 1.5 mi NNW 3.5 mph - 0.01 in Snow Light Snow
10:48 PM 33.8 °F 28.6 °F 32.0 °F 93% 29.77 in 1.2 mi North 5.8 mph - 0.03 in Snow Light Snow
10:53 PM 33.1 °F 28.7 °F 32.0 °F 96% 29.77 in 1.0 mi North 4.6 mph - 0.04 in Snow Light Snow
11:05 PM 32.0 °F 26.4 °F 32.0 °F 100% 29.77 in 0.8 mi NNW 5.8 mph - 0.02 in Snow Light Snow
11:18 PM 32.0 °F 23.6 °F 32.0 °F 100% 29.77 in 1.2 mi NW 10.4 mph - 0.03 in Snow Light Snow
11:37 PM 33.8 °F 24.3 °F 30.2 °F 87% 29.78 in 1.2 mi NNW 13.8 mph 23.0 mph 0.03 in Snow Light Snow
11:43 PM 33.8 °F 23.5 °F 30.2 °F 87% 29.78 in 2.0 mi NNW 16.1 mph 23.0 mph 0.04 in Snow Light Snow
11:53 PM 32.0 °F 19.5 °F 30.9 °F 96% 29.78 in 2.0 mi NNW 21.9 mph 27.6 mph 0.04 in Snow Light Snow